Weather History for PAWM - March, 2014

Change the Weather History Date:

Saturday, March 29, 2014

  Actual Average (PAKK) Record (PAKK)
Temperature  
Mean Temperature 19 °F -  
Max Temperature 28 °F 18 °F 30 °F (2014)
Min Temperature 10 °F 6 °F -23 °F (2004)
Degree Days  
Heating Degree Days 46    
Moisture  
Dew Point 10 °F    
Average Humidity 68    
Maximum Humidity 85    
Minimum Humidity 49    
Precipitation  
Precipitation 0.00 in - - ()
Sea Level Pressure  
Sea Level Pressure 29.82 in    
Wind  
Wind Speed 8 mph (NNW)    
Max Wind Speed 13 mph    
Max Gust Speed -    
Visibility 10 miles    
Events      
Averages and records for this station are not official NWS values.
T = Trace of Precipitation, MM = Missing Value Source: NWS Daily Summary

Daily Weather History Graph

Daily Weather History Graph

Search for Another Location

Airport or City:

Trip Planner

Search our weather history database for the weather conditions in past years. The results will help you decide how hot, cold, wet, or windy it might be!

Date:

Astronomy

Mar. 29, 2014 Rise Set
Actual Time 8:20 AM AKDT 9:37 PM AKDT
Civil Twilight 7:30 AM AKDT 10:28 PM AKDT
Nautical Twilight 6:26 AM AKDT 11:33 PM AKDT
Astronomical Twilight 5:04 AM AKDT 12:57 AM AKDT
Moon 7:56 AM AKDT (3/29) 8:49 PM AKDT (3/29)
Length of Visible Light 14h 58m
Length of Day
13h 17m
Waning Crescent, 1% of the Moon is Illuminated
Mar 29
Waning Crescent
Mar 30
New
Apr 7
First Quarter
Apr 14
Full
Apr 21
Last Quarter

Hourly Weather History & Observations

Time (AKDT) Temp. Windchill Dew Point Humidity Pressure Visibility Wind Dir Wind Speed Gust Speed Precip Events Conditions
12:58 AM 17.1 °F 5.0 °F 9.0 °F 71% 29.80 in 10.0 mi North 10.4 mph - N/A   Clear
1:58 AM 17.1 °F 5.0 °F 9.0 °F 71% 29.80 in 10.0 mi North 10.4 mph - N/A   Clear
2:58 AM 16.0 °F 2.3 °F 9.0 °F 74% 29.79 in 10.0 mi North 12.7 mph - N/A   Clear
3:58 AM 15.1 °F 2.5 °F 8.1 °F 74% 29.78 in 10.0 mi North 10.4 mph - N/A   Clear
4:58 AM 14.0 °F 1.2 °F 7.0 °F 74% 29.78 in 10.0 mi North 10.4 mph - N/A   Clear
5:58 AM 14.0 °F 2.0 °F 7.0 °F 74% 29.77 in 10.0 mi North 9.2 mph - N/A   Clear
6:58 AM 14.0 °F 2.0 °F 6.1 °F 71% 29.77 in 10.0 mi North 9.2 mph - N/A   Clear
7:58 AM 10.9 °F -0.8 °F 6.1 °F 81% 29.76 in 10.0 mi NNW 8.1 mph - N/A   Clear
8:58 AM 14.0 °F 5.1 °F 7.0 °F 74% 29.77 in 10.0 mi North 5.8 mph - N/A   Clear
9:58 AM 15.1 °F 5.2 °F 7.0 °F 70% 29.78 in 9.0 mi North 6.9 mph - N/A   Clear
10:58 AM 19.0 °F 13.9 °F 8.1 °F 62% 29.79 in 9.0 mi North 3.5 mph - N/A   Clear
11:58 AM 19.9 °F 14.9 °F 7.0 °F 57% 29.80 in 9.0 mi NNW 3.5 mph - N/A   Clear
12:58 PM 21.9 °F 17.2 °F 8.1 °F 55% 29.81 in 10.0 mi West 3.5 mph - N/A   Clear
1:58 PM 23.0 °F 18.4 °F 8.1 °F 53% 29.81 in 9.0 mi South 3.5 mph - N/A   Clear
2:58 PM 25.0 °F 18.1 °F 9.0 °F 51% 29.82 in 10.0 mi SSW 5.8 mph - N/A   Clear
3:58 PM 27.0 °F 21.6 °F 10.0 °F 49% 29.83 in 10.0 mi Variable 4.6 mph - N/A   Clear
4:58 PM 27.0 °F 20.5 °F 14.0 °F 58% 29.84 in 9.0 mi South 5.8 mph - N/A   Clear
5:58 PM 28.0 °F 21.7 °F 12.0 °F 51% 29.85 in 10.0 mi SW 5.8 mph - N/A   Clear
6:58 PM 26.1 °F 19.4 °F 15.1 °F 63% 29.86 in 10.0 mi SSW 5.8 mph - N/A   Clear
7:58 PM 24.1 °F 18.2 °F 17.1 °F 75% 29.87 in 10.0 mi South 4.6 mph - N/A   Clear
8:58 PM 21.9 °F 13.4 °F 16.0 °F 78% 29.88 in 10.0 mi South 6.9 mph - N/A   Clear
9:58 PM 18.0 °F 11.1 °F 14.0 °F 84% 29.91 in 10.0 mi ESE 4.6 mph - N/A   Clear
10:58 PM 19.0 °F 11.1 °F 15.1 °F 85% 29.91 in 10.0 mi SE 5.8 mph - N/A   Clear
11:58 PM 18.0 °F 9.8 °F 14.0 °F 84% 29.93 in 10.0 mi SE 5.8 mph - N/A   Clear